Back to catalog

STARLINK-11383

AliveCommunicationsVLEO
NORAD 61883·PAYLOAD·🇺🇸 United States

Launched Nov 9, 2024 from Vandenberg Space Force Base

Loading…

Next Passes (next 24 hours)

TLE

FreshSource: CelesTrak SupGP

Epoch: Sep 15, 2026, 03:25 UTC

1 61883C 24204K   26258.14284722  .00086489  00000+0  71232-3 0  2581
2 61883  53.1567 142.1575 0000986  87.0752 239.7968 15.69670253    11

Track STARLINK-11383 in real time with AllMySat

Download on the App Store